C/2014 N3 ( NEOWISE )

Japanese version
Home page
Updated on May 22, 2017

---------------------------------------------------------------------

* Profile

Discovery Date July 4, 2014
Magnitude 20 mag
Discoverer Near-Earth Object Wide-field Infrared Survey Explorer

* Pictures

* Orbital Elements

Epoch 2015 Feb. 27.0 TT = JDT 2457080.5
T 2015 Mar. 13.23281 TT                                 MPCW
q   3.8822675            (2000.0)            P               Q
z  +0.0001364      Peri.  353.57118     +0.95234664     -0.05563675
 +/-0.0000004      Node    19.92686     +0.30403795     +0.09440554
e   0.9994706      Incl.   61.63487     +0.02442973     +0.99397794
From 1486 observations 2014 July 4-2016 Nov. 7, mean residual 0".5.

* Finding Charts

* Magnitudes Graph

        m1 = 6.0 + 5 log d + 10.0 log r

---------------------------------------------------------------------

The orbital elements are published on M.P.E.C. 2016-V116.
The charts are made with StellaNavigator Ver.8 (AstroArts).
The magnitudes graphs are made with Comet for Windows.

---------------------------------------------------------------------

Copyright(C) Seiichi Yoshida (comet@aerith.net). All rights reserved.